Regional Weather Roundup
Issued by NWS

Home | Current Version | Previous Version | Text Only | Print | Product List | Glossary Off
Versions: 1 2 3 4 5 6 7 8 9 10 11 12 13 14 15 16 17 18 19 20 21 22 23 24 25 26 27 28 29 30 31 32 33 34 35 36 37 38 39 40 41 42 43 44 45 46 47 48 49 50

000
ASUS43 KMPX 130310
RWRMN
WEATHER ROUNDUP FOR MINNESOTA
NATIONAL WEATHER SERVICE TWIN CITIES/CHANHASSEN MN
900 PM CST TUE DEC 12 2017


NOTE: "FAIR" INDICATES FEW OR NO CLOUDS BELOW 12,000 FEET WITH NO
SIGNIFICANT WEATHER AND/OR OBSTRUCTIONS TO VISIBILITY. N/A MEANS
CURRENT SKY AND/OR WEATHER CONDITIONS ARE NOT AVAILABLE.

MNZ060>063-068>070-130400-
   Twin Cities Metro

CITY           SKY/WX    TMP DP  RH WIND       PRES   REMARKS
TWIN CITIES    CLOUDY    24  20  84 S6        29.74F WCI  17
ST PAUL        CLOUDY    22  17  81 SE9       29.76F WCI  12
CRYSTAL        CLOUDY    23  16  74 S8        29.72F WCI  14
BLAINE         MOCLDY    23  18  80 S8        29.74F WCI  14
LAKEVILLE      CLOUDY    27  25  93 S6        29.74F WCI  20
EDEN PRAIRIE   CLOUDY    25  21  85 SE6       29.73F WCI  18
SOUTH ST PAUL  CLOUDY    23  18  81 S6        29.75F WCI  16
LAKE ELMO      CLOUDY    23  18  80 S7        29.75F WCI  15
$$
MNZ001>005-007-008-013>017-022>024-027-028-130400-
   Northwest Minnesota

CITY           SKY/WX    TMP DP  RH WIND       PRES   REMARKS
BEMIDJI        CLOUDY    18  15  89 SE8       29.55F WCI   7
HALLOCK        CLOUDY    28  27  93 S13       29.46F WCI  18
ROSEAU         CLOUDY    21  18  86 SE5       29.51F WCI  15
WARROAD        CLOUDY    18  12  79 E9        29.53F WCI   6
THIEF RVR FALL CLOUDY    27  25  92 S8        29.49F WCI  19
CROOKSTON      CLOUDY    30  28  93 S13       29.50F WCI  20
FOSSTON        CLOUDY    28  25  86 S13       29.51F WCI  18
DETROIT LAKES  CLOUDY    28  28 100 S6        29.55F WCI  22
MOORHEAD       CLOUDY    30  27  86 S10       29.54F WCI  21
PARK RAPIDS    CLOUDY    21  17  84 SE12      29.57F WCI   9
MAHNOMEN       FAIR      31  27  83 S12       29.52F WCI  22
$$
MNZ006-009>011-018-025>026-130400-
   North Central Minnesota

CITY           SKY/WX    TMP DP  RH WIND       PRES   REMARKS
BAUDETTE       CLOUDY    15  13  91 SE13      29.55F WCI   1
FLAG ISLAND    LGT SNOW  14  10  85 SE9       29.54F WCI   2
INTL FALLS     CLOUDY    13   8  81 SE13      29.63F WCI  -2
WASKISH        CLOUDY    16  14  93 SE10G17   29.55F WCI   3
BIG FORK       CLOUDY    16  12  86 SE7       29.63F WCI   6
LONGVILLE      CLOUDY    18  16  93 SE9       29.61F WCI   6
GRAND RAPIDS   CLOUDY    14  11  87 SE10      29.66F WCI   1
CRANE LAKE     LGT SNOW  10   9  92 CALM      29.71F
ORR            CLOUDY    10   7  85 SE6       29.63F WCI   1
COOK           FLURRIES  12   9  85 SE8       29.67F WCI   1
WALKER         CLOUDY    19  16  88 SE6       29.58F WCI  10
$$
MNZ012-019>021-037-130400-
   Northeast Minnesota

CITY           SKY/WX    TMP DP  RH WIND       PRES   REMARKS
DULUTH         FLURRIES  11   9  92 SE9       29.71F WCI  -2
ELY            LGT SNOW  10   7  85 SE7       29.70F WCI   0
HIBBING        CLOUDY    11   8  88 SE10      29.69F WCI  -3
EVELETH        FLURRIES  12   7  81 SE7       29.70F WCI   2
DULUTH HARBOR  CLOUDY    16  10  79 SE6       29.80F WCI   7
TWO HARBORS    CLOUDY    18  12  79 SE6       29.74F WCI   9
SILVER BAY     LGT SNOW  12  10  92 CALM      29.75
GRAND MARAIS     N/A     15   6  67 CALM      29.83F
G MARAIS ARPRT FLURRIES   7   0  72 CALM      29.73F
$$
MNZ029>031-032-039>041-046>048-054>057-064-130400-
   West Central Minnesota

CITY           SKY/WX    TMP DP  RH WIND       PRES   REMARKS
FERGUS FALLS   CLOUDY    30  27  86 SE9       29.60F WCI  22
WHEATON        CLOUDY    34  25  69 S5        29.60F WCI  30
MORRIS         CLOUDY    28  25  86 S7        29.61F WCI  21
ALEXANDRIA     CLOUDY    32  27  81 SW9       29.62F WCI  24
ELBOW LAKE     FAIR      28  26  92 S8        29.60F WCI  20
WADENA         CLOUDY    21  21 100 CALM      29.59F
GLENWOOD       CLOUDY    28  27  93 SW8       29.63F WCI  20
APPLETON       CLOUDY    32  27  80 S7        29.63F WCI  26
BENSON         CLOUDY    28  27  93 SW6       29.65F WCI  22
ORTONVILLE     CLOUDY    37  27  65 SW6       29.61F
MADISON        CLOUDY    39  30  70 SW8       29.64F
WILLMAR        FAIR      30  27  86 S3        29.67F
$$
MNZ033>034-036-042>043-049>051-058-059-130400-
   Central Minnesota

CITY           SKY/WX    TMP DP  RH WIND       PRES   REMARKS
ST CLOUD       CLOUDY    18  15  88 SE7       29.68F WCI   9
SAUK CENTRE    FAIR      21  20  94 SE6       29.64F WCI  14
PAYNESVILLE    CLOUDY    27  26  98 SE3       29.67F
AITKIN         CLOUDY    14  10  85 SE9       29.66F WCI   2
PINE RIVER     CLOUDY    18  14  86 SE9       29.66F WCI   6
BRAINERD       CLOUDY    19  14  81 SE8       29.66F WCI   9
STAPLES        CLOUDY    19  18  93 SE6       29.61F WCI  11
LONG PRAIRIE   FAIR      23  21  93 E6        29.65F WCI  16
LITTLE FALLS   CLOUDY    19  12  73 SE6       29.67F WCI  11
LITCHFIELD     CLOUDY    30  28  93 CALM      29.68F
BUFFALO        CLOUDY    23  19  86 SE3       29.72F
MAPLE LAKE     CLOUDY    23  21  92 S6        29.70F WCI  16
HUTCHINSON     CLOUDY    28  26  92 S3        29.71F
$$
MNZ037-044-045-052-053-130400-
   East Central Minnesota

CITY           SKY/WX    TMP DP  RH WIND       PRES   REMARKS
PRINCETON      CLOUDY    19  16  86 CALM      29.71F
MORA           CLOUDY    18  12  79 SE3       29.74F
CAMBRIDGE      CLOUDY    19  12  73 SE3       29.73F
RUSH CITY      CLOUDY    17  12  81 SE5       29.74F WCI  10
MOOSE LAKE     CLOUDY    14  10  85 S6        29.71F WCI   5
HINCKLEY       CLOUDY    18  12  79 SE6       29.74F WCI   9
CLOQUET        FLURRIES  12   9  85 E6        29.71F WCI   3
MCGREGOR       CLOUDY    16  12  86 SE8       29.68F WCI   5
$$
MNZ071>073-080-081-089-090-097-098-130400-
   Southwest Minnesota

CITY           SKY/WX    TMP DP  RH WIND       PRES   REMARKS
MONTEVIDEO     CLOUDY    30  27  86 SW6       29.65F WCI  24
GRANITE FALLS  PTCLDY    27  25  89 S8        29.68F WCI  19
CANBY          CLOUDY    41  29  62 SW17G28   29.65F
MARSHALL       CLEAR     37  27  67 SW18      29.67F
REDWOOD FALLS  CLOUDY    29  25  85 S8        29.70F WCI  21
OLIVIA         CLOUDY    32  28  86 S9        29.68F WCI  24
PIPESTONE      CLEAR     30  27  86 SW9       29.71F WCI  22
WINDOM         CLOUDY    30  18  59 S10       29.72F WCI  21
WORTHINGTON    CLEAR     33  26  75 SW15      29.72F WCI  23
JACKSON        CLEAR     30  25  80 MISG      29.74F
TRACY          CLEAR     37  28  70 SW18      29.68F
SLAYTON        CLOUDY    31  27  83 SW13      29.71F WCI  22
$$
MNZ065>067-074>077-082>085-091>093-130400-
   South Central Minnesota

CITY           SKY/WX    TMP DP  RH WIND       PRES   REMARKS
MANKATO        PTCLDY    31  26  82 S7        29.75F WCI  24
NEW ULM        CLOUDY    32  27  80 S9        29.72F WCI  24
ST JAMES       CLOUDY    28  27  93 S10       29.74F WCI  19
FAIRMONT       CLEAR     30  24  78 SW13      29.76F WCI  20
GLENCOE        CLEAR     30  27  90 S5        29.71F WCI  25
FARIBAULT      CLOUDY    30  25  80 S8        29.76F WCI  23
OWATONNA       CLOUDY    30  25  80 S10       29.77F WCI  21
WASECA         CLOUDY    32  28  86 S12       29.78F WCI  23
ALBERT LEA     CLOUDY    30  21  69 SW7       29.80F WCI  23
$$
MNZ078>079-086>088-094>096-130400-
   Southeast Minnesota

CITY           SKY/WX    TMP DP  RH WIND       PRES   REMARKS
ROCHESTER      CLOUDY    25  21  85 S14       29.80F WCI  13
RED WING       CLOUDY    25  16  68 SE7       29.79F WCI  17
STANTON        MOCLDY    29  24  80 S9        29.75F WCI  21
DODGE CENTER   MOCLDY    27  21  80 S16       29.77F WCI  14
WINONA           N/A     23  14  68 SE6       29.86F WCI  16
AUSTIN         CLOUDY    27  21  80 S6        29.81F WCI  20
PRESTON        CLOUDY    25  17  73 S13       29.82F WCI  13
$$
ABBREVIATIONS USED IN REMARKS
   TC - TEMPERATURES IN CELSIUS
  WCI - WIND CHILL INDEX
   HX - HEAT INDEX
  VSB - VISIBILITY
$$




USA.gov is the U.S. government's official web portal to all federal, state and local government web resources and services.